Tracking 25612 objects as of 19-May-2022
HD Live streaming from Space Station
objects crossing your sky now

COSMOS 2251 DEB

Track COSMOS 2251 DEB now!
10-day predictions


NORAD ID: 34620
Int'l Code: 1993-036WR
Perigee: 736.9 km
Apogee: 913.7 km
Inclination: 74.1 °
Period: 101.3 minutes
Semi major axis: 7196 km
RCS: 0.011 m2 (small)
Launch date: June 16, 1993
Source: Commonwealth of Independent States (former USSR) (CIS)
Launch site: PLESETSK MISSILE AND SPACE COMPLEX (PKMTR)

Note: This is SATELLITE DEBRIS
aabbcc
Your satellite tracking list
Your tracking list is empty




NASA's NSSDC Master Catalog

Two Line Element Set (TLE):
1 34620U 93036WR  22138.51761429  .00006747  00000-0  28289-2 0  9992
2 34620  74.0690  78.0233 0122840  80.1200 281.3787 14.22114916681499
Source of the keplerian elements: AFSPC